Location: NJAA Observatory
(40.6819°N, 74.8979°W)
Time: 20:11:13
(UTC-04:00)

Daily predictions for brighter satellites

Satellite Brightness Start Highest point End
(mag) Time Altitude Azimuth Time Altitude Azimuth Time Altitude Azimuth
Cosmos 1606 3.9 20:42:03 10° NNE 20:45:28 28° ENE 20:48:51 10° SE
COSMOS 2487 4.2 20:43:29 10° NNE 20:46:07 19° ENE 20:48:44 10° ESE
Meteor 1-27 Rocket 4.2 20:43:54 10° N 20:49:07 40° ENE 20:54:16 10° SE
ERS-1 Rocket 3.3 20:44:46 10° SE 20:49:37 50° ENE 20:54:29 10° N
ALOS 2.8 20:45:17 10° S 20:49:54 64° W 20:54:34 10° NNW
Cosmos 1892 3.0 20:47:07 10° SSW 20:50:56 73° W 20:54:48 10° N
Cosmos 407 Rocket 3.6 20:46:47 10° NNW 20:52:03 64° ENE 20:57:19 10° SSE
Cosmos 1340 Rocket 4.5 20:51:52 10° SSW 20:55:38 39° WNW 20:59:27 10° N
Cosmos 2074 Rocket 4.2 20:54:33 10° S 21:00:50 81° W 21:07:09 10° N
H-2A R/B 3.8 21:00:19 10° S 21:03:51 44° W 21:07:26 10° NNW
Cosmos 1452 Rocket 3.6 20:58:54 10° S 21:04:01 56° ESE 21:09:12 10° NNE
Cosmos 1782 2.8 21:00:45 10° N 21:04:48 84° E 21:08:51 10° S
Cosmos 1674 Rocket 3.6 21:02:23 10° N 21:06:52 88° E 21:11:17 10° S
Cosmos 1190 Rocket 4.2 21:02:30 10° NNW 21:07:42 76° WSW 21:12:52 10° SSE
ATLAS 5 CENTAUR R/B 3.4 21:03:34 10° NW 21:09:21 46° WSW 21:15:27 10° S
Cosmos 1610 Rocket 4.5 21:04:37 10° S 21:10:46 83° E 21:17:02 10° N
USA 186 3.6 21:08:30 10° SSW 21:11:20 31° W 21:14:20 10° NNW
Okean 2 Rocket 4.1 21:08:10 10° SSE 21:11:56 28° E 21:15:41 10° NNE
Atlas Centaur 2 3.1 21:11:36 10° SW 21:13:30 14° S 21:15:19 10° SSE
CENTAUR R/B 4.1 21:08:48 10° NW 21:16:11 43° WSW 21:23:52 10° S
OAO 3 Rocket 4.4 21:13:24 10° SSW 21:17:22 24° SSE 21:20:23 14° ESE
Nadezhda 3 Rocket 4.1 21:11:52 10° N 21:18:11 65° E 21:24:31 10° SSE
Cosmos 1939 Rocket 2.7 21:17:03 10° SSE 21:20:54 77° ENE 21:24:51 10° N
Cosmos 1242 Rocket 3.7 21:18:40 10° NNE 21:21:51 27° ENE 21:23:49 17° ESE
Cosmos 1782 Rocket 3.9 21:18:24 10° SSE 21:22:38 45° E 21:26:56 10° NNE
Cosmos 1184 Rocket 3.2 21:19:40 10° SSE 21:22:50 42° E 21:26:01 10° NNE
YAOGAN 6 3.8 21:21:31 16° ESE 21:23:24 26° ENE 21:26:23 10° NNE
Sich 1 Rocket 3.8 21:18:55 10° S 21:23:29 79° W 21:28:06 10° N
ISS -3.2 21:20:37 10° WSW 21:23:52 79° NW 21:27:08 10° NE
Cosmos 1238 Rocket 2.8 21:21:52 10° N 21:25:08 52° E 21:28:10 15° SSE
Cosmos 1408 2.6 21:21:33 10° S 21:25:10 58° E 21:28:45 10° NNE
SPOT 5 3.3 21:25:17 13° SSE 21:29:52 59° ENE 21:35:09 10° N
DNEPR-1 R/B 4.3 21:26:28 10° NNW 21:31:46 50° NE 21:34:50 19° ESE
Cosmos 1833 Rocket 4.0 21:27:39 10° N 21:32:16 26° NE 21:35:46 15° ESE
Cosmos 2278 Rocket 2.2 21:30:06 10° SSW 21:35:46 83° ESE 21:41:29 10° NNE
Cosmos 1825 2.1 21:31:59 10° S 21:35:47 84° E 21:39:38 10° N
MetOp-A 4.3 21:31:45 16° SE 21:35:57 57° ENE 21:41:12 10° N
Cosmos 1844 Rocket 3.8 21:30:55 10° SW 21:36:21 48° WNW 21:41:49 10° NNE
Cosmos 1975 Rocket 3.1 21:33:38 10° N 21:37:55 59° E 21:40:50 20° SSE
Cosmos 676 Rocket 4.3 21:33:24 10° NNW 21:38:34 67° WSW 21:43:24 12° S
Cosmos 2084 3.8 21:34:54 10° SW 21:38:41 57° NW 21:42:29 10° NNE
Cosmos 1174 4.1 21:36:40 10° NW 21:39:40 41° WSW 21:41:30 18° S
USA 229 DEB 4.5 21:34:17 10° NNW 21:40:59 42° NE 21:46:06 17° ESE
Cosmos 1844 4.4 21:35:41 10° SW 21:41:22 60° WNW 21:47:08 10° NNE
BREEZE-M DEB (TANK) 4.2 21:40:25 10° W 21:42:14 19° SSW 21:43:47 15° S
Cosmos 1954 Rocket 4.1 21:37:20 10° NNW 21:42:34 80° WSW 21:46:48 16° SSE
Cosmos 2341 Rocket 4.0 21:38:33 10° S 21:44:52 86° E 21:51:09 10° N
Cosmos 1908 Rocket 4.3 21:43:02 10° SSW 21:47:20 54° W 21:51:42 10° N
Cosmos 1378 Rocket 3.9 21:44:18 10° NNW 21:48:35 65° W 21:52:23 13° S
COS B Rocket 3.5 21:44:41 10° N 21:48:40 64° W 21:51:57 12° SSW
Intercosmos 25 3.1 21:47:58 25° SSE 21:49:46 52° E 21:52:51 10° NNE
SL-8 Rocket 4.0 21:49:49 13° S 21:55:18 62° E 22:01:26 10° NNE
Cosmos 2082 Rocket 2.7 21:50:31 10° NNW 21:56:02 47° ENE 21:58:58 26° ESE
Cosmos 1741 Rocket 4.0 21:52:22 10° NNW 21:57:35 67° ENE 22:00:22 28° SE
Meteor 1-14 Rocket 4.3 21:53:53 17° SSE 21:58:07 57° E 22:03:36 10° NNE
deb Chang Zheng 4 4.5 21:54:01 10° N 21:58:19 51° WNW 22:02:36 10° SSW
Timation 2 Rocket 3.8 21:54:37 10° NNW 22:00:39 84° ENE 22:04:13 26° SSE
Cosmos 1023 Rocket 4.5 21:57:13 10° NNW 22:02:20 79° WSW 22:05:26 24° S
Cosmos 1812 4.3 22:01:01 10° NNE 22:03:59 21° ENE 22:04:10 20° ENE
USA 245 3.1 22:05:04 44° SE 22:06:01 69° ENE 22:10:07 10° N
GPS 2-05 Rocket1 3.6 22:04:03 10° WSW 22:07:26 37° S 22:07:26 37° S
Cosmos 2297 3.6 22:06:21 10° SSW 22:12:02 83° ESE 22:17:49 10° NNE
Envisat 4.2 22:09:05 10° SSW 22:13:46 38° W 22:18:29 10° NNW
H-2A R/B 3.6 22:12:33 11° SSW 22:16:07 30° W 22:19:52 10° NW
Cosmos 2151 Rocket 3.6 22:16:23 37° SSE 22:18:03 67° E 22:22:33 10° NNE
NOAA 11 4.1 22:15:50 31° SSE 22:18:34 80° ENE 22:24:05 10° N
CZ-3C R/B 4.0 22:09:04 10° WSW 22:21:22 19° SSW 22:23:56 17° S
COSMOS 2487 4.4 22:18:42 10° NW 22:21:42 25° W 22:23:26 17° SW
CZ-4 R/B 3.7 22:17:15 10° NNE 22:21:54 65° ESE 22:23:30 39° S
APEX 4.2 22:19:04 10° SW 22:22:55 57° WNW 22:28:00 10° NNE
Cosmos 614 Rocket 3.9 22:19:39 10° NNW 22:24:45 76° WSW 22:26:48 36° S
Cosmos 864 Rocket 4.4 22:21:57 27° S 22:25:24 72° E 22:31:32 10° NNE
BREEZE-M DEB (TANK) 4.4 22:31:42 10° NW 22:33:17 16° N 22:35:35 10° NE
Cosmos 1300 Rocket 4.2 22:33:36 39° E 22:33:36 39° E 22:37:34 10° NNE
Gbstr 26 Del rocket 4.4 22:29:15 10° NW 22:33:57 36° NNE 22:35:56 24° ENE
Cosmos 2366 rocket 4.0 22:32:20 24° S 22:36:19 88° W 22:42:41 10° N
Okean 1 Rocket 3.8 22:38:39 37° E 22:38:39 37° E 22:42:26 10° NNE
USA 234 3.4 22:34:39 10° ENE 22:40:51 45° SE 22:43:01 34° S
CZ-4C R/B 3.2 22:41:21 73° ESE 22:41:33 76° ENE 22:45:40 10° N
Landsat 7 3.7 22:40:32 55° SSE 22:41:35 81° ENE 22:46:22 10° N
Cosmos 2369 Rocket 3.9 22:45:04 17° ENE 22:45:04 17° ENE 22:47:22 10° NE
H-2A R/B 2.1 22:42:13 48° SE 22:43:40 72° ENE 22:48:57 10° N
CZ-4B R/B 4.1 22:42:08 10° N 22:46:56 53° WNW 22:50:13 19° SW
ARGOS 3.6 22:46:31 32° SSW 22:48:45 54° W 22:54:00 10° NNW
Timation 1 Rocket 4.2 22:46:57 28° SSW 22:50:19 83° ESE 22:56:22 10° NNE
SL-08 RB Rocket 4.2 22:49:27 42° SSW 22:50:40 55° W 22:55:14 10° NNW
Okean 1-7 Rocket 4.1 22:47:13 10° N 22:51:25 46° ENE 22:51:25 46° ENE
Terra 1.6 22:56:47 70° SE 22:57:18 82° ENE 23:02:04 10° N
ISS -0.4 22:58:25 10° WNW 23:00:44 18° NNW 23:03:02 10° NNE
Meteor 1-20 Rocket 4.2 23:01:01 43° SSW 23:02:55 78° W 23:08:29 10° N
Cosmos 1302 Rocket 4.1 23:06:46 58° E 23:06:46 58° E 23:11:45 10° NNE
Spot 4 3.7 23:11:30 81° SE 23:11:44 85° ENE 23:16:36 10° NNW
Cosmos 1000 Rocket 4.5 23:05:48 10° N 23:12:02 66° E 23:13:07 56° SE
CARTOSAT-1 3.9 23:15:44 58° W 23:15:44 58° W 23:19:55 10° NNW
Cosmos 1943 Rocket 4.4 23:18:11 11° ENE 23:18:11 11° ENE 23:18:44 10° ENE
Cosmos 1833 Rocket 3.2 23:11:03 10° NW 23:16:26 48° WSW 23:17:28 43° SW
Cosmos 2239 Rocket 4.5 23:16:18 57° SE 23:17:08 63° E 23:23:22 10° NNE
Okean 1 4.0 23:15:01 10° NNW 23:18:36 53° WNW 23:18:36 53° WNW
Spot 2 4.4 23:16:03 10° NNE 23:19:31 56° NNE 23:19:31 56° NNE
Lacrosse 5 2.1 23:25:04 57° ENE 23:25:04 57° ENE 23:29:09 10° NE
USA 229 DEB 4.3 23:25:19 10° NW 23:32:00 45° WSW 23:33:32 40° SSW
USA 229 4.3 23:25:24 10° NW 23:32:06 45° WSW 23:33:38 40° SSW
Iridium 4 Rocket 3.7 23:28:59 10° N 23:34:55 72° E 23:35:10 71° ESE
ASTEX 1 3.7 23:33:02 10° N 23:37:55 58° W 23:38:12 57° W
Cosmos 2082 Rocket 3.7 23:35:19 10° NW 23:39:45 24° W 23:40:49 23° WSW
Cosmos 1503 Rocket 4.1 23:41:33 10° NNW 23:46:27 70° NE 23:46:27 70° NE
Meteor 2-4 Rocket 3.6 23:42:49 10° N 23:48:06 74° ENE 23:48:06 74° ENE
NOSS 3-1 (A) 4.0 23:43:00 10° NNW 23:50:39 80° NE 23:52:37 56° SE
Cosmos 1821 Rocket 4.0 23:52:03 65° SW 23:52:54 74° W 23:59:08 10° N
Cosmos 1605 Rocket 4.0 23:53:28 66° ESE 23:53:37 67° E 23:59:58 10° NNE
CZ-4B R/B 4.5 23:57:11 11° NNE 23:57:11 11° NNE 23:57:21 10° NNE
